TimeCST,TemperatureF,Dew PointF,Humidity,Sea Level PressureIn,VisibilityMPH,Wind Direction,Wind SpeedMPH,Gust SpeedMPH,PrecipitationIn,Events,Conditions,WindDirDegrees,DateUTC
12:15 AM,12.9,7.2,78,30.12,10.0,NNE,10.4,-,N/A,,Clear,30,2014-01-01 06:15:00
12:35 AM,12.4,6.8,78,30.12,10.0,NNE,8.1,-,N/A,,Clear,30,2014-01-01 06:35:00
12:55 AM,12.0,6.6,79,30.10,10.0,NNE,11.5,17.3,N/A,,Clear,30,2014-01-01 06:55:00
1:15 AM,11.8,6.4,79,30.11,10.0,NE,10.4,-,N/A,,Clear,40,2014-01-01 07:15:00
1:35 AM,11.7,6.3,79,30.11,10.0,NE,11.5,-,N/A,,Clear,40,2014-01-01 07:35:00
1:55 AM,11.8,6.4,79,30.11,10.0,NNE,9.2,-,N/A,,Clear,30,2014-01-01 07:55:00
2:15 AM,11.3,5.9,79,30.11,10.0,NE,11.5,-,N/A,,Clear,40,2014-01-01 08:15:00
2:35 AM,11.3,5.9,79,30.11,10.0,NNE,11.5,-,N/A,,Clear,30,2014-01-01 08:35:00
2:55 AM,11.3,5.9,79,30.11,10.0,NE,11.5,-,N/A,,Clear,40,2014-01-01 08:55:00
3:15 AM,11.1,5.9,80,30.13,10.0,NNE,8.1,-,N/A,,Scattered Clouds,20,2014-01-01 09:15:00
3:35 AM,11.3,5.9,79,30.13,10.0,NNE,9.2,-,N/A,,Overcast,20,2014-01-01 09:35:00
3:55 AM,11.3,5.9,79,30.14,10.0,NNE,12.7,-,N/A,,Overcast,20,2014-01-01 09:55:00
4:15 AM,10.9,5.5,79,30.13,10.0,North,15.0,-,N/A,,Overcast,10,2014-01-01 10:15:00
4:35 AM,10.9,5.5,79,30.14,10.0,NNE,11.5,-,N/A,,Overcast,30,2014-01-01 10:35:00
4:55 AM,10.9,5.5,79,30.14,10.0,NNE,11.5,-,N/A,,Overcast,20,2014-01-01 10:55:00
5:15 AM,11.1,5.9,80,30.13,10.0,NNE,10.4,-,N/A,,Overcast,30,2014-01-01 11:15:00
5:35 AM,11.3,5.9,79,30.14,10.0,NNE,10.4,-,N/A,,Overcast,20,2014-01-01 11:35:00
5:55 AM,12.0,6.4,78,30.16,10.0,NNE,9.2,17.3,N/A,,Overcast,30,2014-01-01 11:55:00
6:15 AM,12.0,5.9,76,30.14,10.0,NNE,9.2,-,N/A,,Overcast,30,2014-01-01 12:15:00
6:35 AM,12.2,6.3,77,30.15,10.0,NE,11.5,16.1,N/A,,Overcast,40,2014-01-01 12:35:00
6:55 AM,12.2,5.9,76,30.17,10.0,NNE,10.4,-,N/A,,Overcast,20,2014-01-01 12:55:00
7:15 AM,12.0,5.9,76,30.17,10.0,NNE,10.4,-,N/A,,Overcast,20,2014-01-01 13:15:00
7:35 AM,11.3,6.6,81,30.17,1.5,NNE,12.7,-,N/A,Snow,Light Snow,20,2014-01-01 13:35:00
7:55 AM,11.3,7.3,84,30.17,5.0,NNE,12.7,-,N/A,Snow,Light Snow,30,2014-01-01 13:55:00
8:15 AM,11.3,6.8,82,30.18,10.0,NNE,11.5,-,N/A,,Overcast,20,2014-01-01 14:15:00
8:35 AM,11.8,6.8,80,30.19,5.0,NNE,10.4,-,N/A,Snow,Light Snow,20,2014-01-01 14:35:00
8:55 AM,11.3,6.8,82,30.21,2.5,North,9.2,-,N/A,Snow,Light Snow,360,2014-01-01 14:55:00
9:15 AM,10.4,5.7,81,30.22,4.0,North,13.8,-,N/A,,Haze,360,2014-01-01 15:15:00
9:35 AM,9.7,5.0,81,30.23,1.8,North,11.5,-,N/A,Snow,Light Snow,360,2014-01-01 15:35:00
9:55 AM,9.5,5.0,82,30.23,1.0,North,9.2,-,N/A,Snow,Light Snow,10,2014-01-01 15:55:00
10:15 AM,9.3,4.8,82,30.23,1.5,North,11.5,-,N/A,Snow,Light Snow,10,2014-01-01 16:15:00
10:35 AM,9.5,5.0,82,30.23,1.2,North,11.5,-,N/A,Snow,Light Snow,10,2014-01-01 16:35:00
10:55 AM,9.3,4.6,81,30.23,1.8,North,11.5,-,N/A,Snow,Light Snow,10,2014-01-01 16:55:00
11:15 AM,9.3,5.0,83,30.24,1.5,North,11.5,-,N/A,Snow,Light Snow,360,2014-01-01 17:15:00
11:35 AM,8.4,4.1,83,30.24,1.0,North,8.1,19.6,N/A,Snow,Light Snow,360,2014-01-01 17:35:00
11:55 AM,8.4,3.9,82,30.23,1.0,North,11.5,18.4,N/A,Snow,Light Snow,10,2014-01-01 17:55:00
12:15 PM,8.8,4.3,82,30.23,0.8,North,9.2,17.3,N/A,Snow,Light Snow,360,2014-01-01 18:15:00
12:35 PM,9.0,4.3,81,30.24,1.0,North,13.8,17.3,N/A,Snow,Light Snow,10,2014-01-01 18:35:00
12:55 PM,9.3,4.5,81,30.24,1.0,North,9.2,18.4,N/A,Snow,Light Snow,360,2014-01-01 18:55:00
1:15 PM,9.3,4.3,80,30.23,1.5,North,10.4,-,N/A,Snow,Light Snow,360,2014-01-01 19:15:00
1:35 PM,9.7,4.6,80,30.24,2.5,North,11.5,-,N/A,Snow,Light Snow,360,2014-01-01 19:35:00
1:55 PM,10.4,5.2,79,30.23,3.0,North,10.4,-,N/A,Snow,Light Snow,350,2014-01-01 19:55:00
2:15 PM,9.5,4.1,79,30.23,4.0,NNW,9.2,16.1,N/A,,Haze,340,2014-01-01 20:15:00
2:35 PM,10.0,3.6,75,30.24,10.0,North,11.5,17.3,N/A,,Overcast,360,2014-01-01 20:35:00
2:55 PM,10.2,4.1,76,30.24,10.0,North,12.7,16.1,N/A,,Overcast,350,2014-01-01 20:55:00
3:15 PM,9.9,3.2,74,30.24,10.0,North,10.4,-,N/A,,Overcast,350,2014-01-01 21:15:00
3:35 PM,9.5,3.0,75,30.25,10.0,NNW,12.7,16.1,N/A,,Overcast,340,2014-01-01 21:35:00
3:55 PM,9.5,3.0,75,30.26,10.0,North,9.2,18.4,N/A,,Overcast,350,2014-01-01 21:55:00
4:15 PM,9.5,3.4,76,30.26,10.0,North,9.2,17.3,N/A,,Overcast,350,2014-01-01 22:15:00
4:35 PM,9.5,3.2,76,30.27,10.0,North,13.8,20.7,N/A,,Overcast,350,2014-01-01 22:35:00
4:55 PM,9.1,2.7,75,30.28,10.0,North,11.5,17.3,N/A,,Overcast,360,2014-01-01 22:55:00
5:15 PM,9.0,2.8,76,30.28,10.0,North,11.5,17.3,N/A,,Mostly Cloudy,350,2014-01-01 23:15:00
5:35 PM,8.2,2.3,77,30.30,10.0,NNW,13.8,20.7,N/A,,Clear,340,2014-01-01 23:35:00
5:55 PM,8.1,2.1,77,30.30,10.0,North,11.5,-,N/A,,Clear,350,2014-01-01 23:55:00
6:15 PM,7.7,1.8,77,30.31,10.0,NNW,10.4,17.3,N/A,,Clear,340,2014-01-02 00:15:00
6:35 PM,7.3,1.2,76,30.33,10.0,NNW,11.5,-,N/A,,Clear,340,2014-01-02 00:35:00
6:55 PM,7.3,1.0,75,30.34,10.0,NNW,9.2,-,N/A,,Clear,340,2014-01-02 00:55:00
7:15 PM,6.8,0.5,75,30.35,10.0,NNW,8.1,-,N/A,,Clear,330,2014-01-02 01:15:00
7:35 PM,7.0,0.9,76,30.36,10.0,NNW,8.1,-,N/A,,Mostly Cloudy,330,2014-01-02 01:35:00
7:55 PM,7.3,1.2,76,30.36,10.0,NNW,9.2,-,N/A,,Overcast,330,2014-01-02 01:55:00
8:15 PM,7.5,1.0,75,30.37,10.0,NNW,11.5,-,N/A,,Overcast,340,2014-01-02 02:15:00
8:35 PM,7.7,0.9,74,30.37,10.0,NNW,9.2,-,N/A,,Overcast,340,2014-01-02 02:35:00
8:55 PM,7.7,0.5,72,30.37,10.0,NNW,10.4,-,N/A,,Overcast,330,2014-01-02 02:55:00
9:15 PM,6.6,-0.8,72,30.37,10.0,NNW,9.2,-,N/A,,Scattered Clouds,330,2014-01-02 03:15:00
9:35 PM,4.8,-1.8,74,30.38,10.0,NNW,8.1,-,N/A,,Clear,340,2014-01-02 03:35:00
9:55 PM,3.7,-2.6,75,30.38,10.0,NNW,5.8,-,N/A,,Clear,330,2014-01-02 03:55:00
10:15 PM,3.7,-2.6,75,30.38,10.0,NNW,6.9,-,N/A,,Clear,330,2014-01-02 04:15:00
10:35 PM,2.8,-3.1,76,30.38,10.0,NNW,9.2,-,N/A,,Clear,330,2014-01-02 04:35:00
10:55 PM,3.2,-2.7,76,30.37,10.0,NNW,8.1,-,N/A,,Clear,330,2014-01-02 04:55:00
11:15 PM,2.1,-3.8,76,30.37,10.0,NW,8.1,-,N/A,,Clear,320,2014-01-02 05:15:00
11:35 PM,2.7,-2.7,78,30.37,10.0,NNW,8.1,-,N/A,,Mostly Cloudy,330,2014-01-02 05:35:00
11:55 PM,3.2,-2.2,78,30.37,10.0,NW,11.5,-,N/A,,Overcast,320,2014-01-02 05:55:00